map of LAQ home
Great Circle Mapper logo
LAQ - Airport
Location
City:  Bayda, Libyan Arab Jamahiriya (Libya)
Near (Alt.):Beida
Name:Al Abraq International Airport
Old (Alt.):La Braq International Airport
ICAO:HLLQ
IATA:LAQ

Details
Type:Airport (Aerodrome, Airfield)
Use:International (customs port of entry)
Latitude:3247'19"N (32.788673)
Longitude:2157'52"E (21.964333)
Datum:WGS 1984
Elevation:2157 ft (657 m)
Variation:3.65E (WMM2015 magnetic declination)
0.09 annual change
Runways:2
Longest:11824 × 148 ft (3604 × 45 m), paved

Time
Time Zone:UTC+2
Local Time:

Weather
TAF:HLLQ 052300Z 0600/0624 VRB02KT 8000 SCT024
BECMG 0603/0605 09010KT
BECMG 0608/0610 35012KT
BECMG 0620/0622 VRB02KT

Related Locations
Nearby:
Farthest:MGS: 11680 mi / 18797 km
Mangaia Island (A'ua'u 'Enua), CK

Find:

   beyond  
but within

Other Information
Maps:
NOTAMs:
Links:
Sources:

  
flag of Libyan Arab Jamahiriya (Libya)   

Sectional Chart

Flight Planning
at skyvector.com

Satellite Image

Google Maps Satellite view

 

Copyright © 2004-2016 Karl L. Swartz. All rights reserved.
The Great Circle Mapper name and logo are trademarks of the Great Circle Mapper.
All other trademarks mentioned herein belong to their respective owners.
Please see credits for attibutions and further copyright information.

  Follow gcmap on Facebook Follow gcmap on Twitter Follow gcmap on Google+ GCmap on LinkedIn

hCard Microformat

Geo Microformat